KIRKENES_(CIV/MIL) current weather conditions

sailwx.info

Wind from 170 at 11 knots

Air temperature 13.0° C
Visibility: greater than 5.4 NM
Dewpoint 13.0° C
Present weather: Showers in the vicinity.

Last reported at 2020-Sep-25 12:50 UTC.
Time now 2020-Sep-25 13:39 UTC

Location: N 69°44' E 029°54'.
View on Google Maps.

See reports from other nearby stations

  
Tides and Currents Weather Stations Pressure Air Temp Water Temp Dewpoint Dewpoint Depression Visibility Wind Speed Wind Dir Waves Ship Positions
date/time (UTC)wind fromknots sea level pressurealtimeterstation pressurevisibilityair tempwater tempwave heightnotes
2020-Sep-25 12:50 170 11 5.413.0 Showers in the vicinity.
2020-Sep-25 12:20 170 13 2.712.0 Light drizzle.
2020-Sep-25 11:50 170 13 3.212.0 Rain.
2020-Sep-25 11:20 170 9 5.412.0 Light rain.
2020-Sep-25 10:50 170 12 3.212.0 Rain.
2020-Sep-25 10:20 160 11 5.411.0 Showers in the vicinity.
2020-Sep-25 09:50 160 7 4.910.0 Light rain.
2020-Sep-25 09:20 170 7 5.410.0 Showers in the vicinity.
2020-Sep-25 08:50 150 6 2.7 9.0 Rain.
2020-Sep-25 08:20 170 6 3.2 8.0 Rain.
2020-Sep-25 07:50 170 5 5.4 8.0 Light rain.
2020-Sep-25 07:20 150 6 5.4 7.0 Showers in the vicinity.
2020-Sep-25 06:50 160 7 4.9 7.0
2020-Sep-25 06:20 160 7 4.3 7.0 Light drizzle.
2020-Sep-25 05:50 160 6 5.4 7.0
2020-Sep-25 05:20 5.4 6.0
2020-Sep-25 04:50 5.4 6.0
2020-Sep-25 04:20 5.4 6.0
2020-Sep-25 03:50 180 2 5.4 6.0
2020-Sep-25 03:20 5.4 6.0
2020-Sep-25 02:50 5.4 6.0
2020-Sep-25 02:20 5.4 6.0
2020-Sep-25 01:50 090 6 5.4 5.0
2020-Sep-25 01:20 080 2 5.4 5.0 Light rain.
2020-Sep-25 00:50 260 1 5.4 5.0 Light rain.
2020-Sep-25 00:20 5.4 5.0
2020-Sep-24 23:50 5.4 5.0
2020-Sep-24 23:20 5.4 5.0
2020-Sep-24 22:50 160 4 5.4 5.0
2020-Sep-24 22:20 160 5 5.4 5.0
2020-Sep-24 21:50 170 5 5.4 4.0
2020-Sep-24 21:20 160 6 5.4 5.0
2020-Sep-24 20:50 170 6 5.4 4.0
2020-Sep-24 20:20 160 6 5.4 4.0
2020-Sep-24 19:50 170 6 5.4 4.0
2020-Sep-24 19:20 160 5 5.4 5.0
2020-Sep-24 18:50 170 5 5.4 5.0
2020-Sep-24 18:20 170 5 5.4 5.0
2020-Sep-24 17:50 180 6 5.4 5.0
2020-Sep-24 17:20 160 4 5.4 6.0
2020-Sep-24 16:50 170 6 5.4 6.0
2020-Sep-24 16:20 230 6 5.4 7.0
2020-Sep-24 15:50 230 6 5.4 8.0
2020-Sep-24 15:20 220 4 5.4 8.0
2020-Sep-24 14:50 250 4 5.4 9.0
2020-Sep-24 14:20 250 6 5.410.0
2020-Sep-24 13:50 260 8 5.410.0
2020-Sep-24 13:20 270 9 5.410.0
2020-Sep-24 12:50 270 13 5.410.0
2020-Sep-24 12:20 260 11 5.4 9.0
2020-Sep-24 11:50 270 13 5.410.0
2020-Sep-24 11:20 280 14 5.410.0
2020-Sep-24 10:50 280 14 5.410.0
2020-Sep-24 10:20 270 19 5.4 9.0
2020-Sep-24 09:50 270 19 5.4 9.0
2020-Sep-24 09:20 260 20 5.4 9.0
2020-Sep-24 08:50 260 21 5.4 9.0
2020-Sep-24 08:20 260 20 5.4 8.0
2020-Sep-24 07:50 260 21 5.4 8.0
2020-Sep-24 07:20 260 21 5.4 8.0
2020-Sep-24 06:50 250 19 5.4 8.0
2020-Sep-24 06:20 250 18 5.4 7.0
2020-Sep-24 05:50 250 17 5.4 7.0
2020-Sep-24 05:20 250 15 5.4 7.0
2020-Sep-24 04:50 250 17 5.4 7.0
2020-Sep-24 04:20 250 17 5.4 7.0
2020-Sep-24 03:50 250 17 5.4 8.0
2020-Sep-24 03:20 240 18 5.4 8.0
2020-Sep-24 02:50 240 17 5.4 9.0
2020-Sep-24 02:20 230 17 5.4 9.0
2020-Sep-24 01:50 230 18 5.4 9.0
2020-Sep-24 01:20 220 20 5.4 9.0
2020-Sep-24 00:50 210 17 gusting 27 5.4 9.0
2020-Sep-24 00:20 200 17 5.4 9.0
2020-Sep-23 23:50 200 14 5.4 9.0
2020-Sep-23 23:20 190 14 5.4 9.0
2020-Sep-23 22:50 190 14 gusting 27 5.4 9.0
2020-Sep-23 22:20 180 14 5.4 8.0
2020-Sep-23 21:50 180 12 5.4 8.0
2020-Sep-23 21:20 180 11 5.4 8.0
2020-Sep-23 20:50 180 12 5.4 8.0
2020-Sep-23 20:20 190 18 5.4 8.0
2020-Sep-23 19:50 190 17 5.4 8.0
2020-Sep-23 19:20 190 18 5.4 7.0
2020-Sep-23 18:50 190 18 5.4 7.0
2020-Sep-23 18:20 180 14 5.4 7.0
2020-Sep-23 17:50 190 15 5.4 7.0
2020-Sep-23 17:20 180 14 5.4 7.0
2020-Sep-23 16:50 180 14 5.4 7.0
2020-Sep-23 16:20 180 15 5.4 7.0
2020-Sep-23 15:50 170 12 5.4 7.0
2020-Sep-23 15:20 170 12 5.4 7.0 Light drizzle.
2020-Sep-23 14:50 160 11 5.4 7.0
2020-Sep-23 14:20 170 8 5.4 7.0
2020-Sep-23 13:50 180 9 5.4 7.0 Light drizzle.
2020-Sep-23 13:20 180 11 5.4 7.0